Regional Weather Roundup
Issued by NWS Kansas City/Pleasant Hill, MO

Home | Current Version | Previous Version | Graphics & Text | Print | Product List | Glossary Off
Versions: 1 2 3 4 5 6 7 8 9 10 11 12 13 14 15 16 17 18 19 20 21 22 23 24 25 26 27 28 29 30 31 32 33 34 35 36 37 38 39 40 41 42 43 44 45 46 47 48 49 50

000
ASUS43 KEAX 260404
RWREAX

WEATHER ROUNDUP FOR EASTERN KANSAS AND NORTHWEST MISSOURI
NATIONAL WEATHER SERVICE KANSAS CITY/PLEASANT HILL MO
1100 PM CDT FRI JUL 25 2014

KSZ040-057-103>105-MOZ028-029-037-043-260500-
...KANSAS CITY METROPOLITAN AREA...

CITY           SKY/WX    TMP DP  RH WIND       PRES   REMARKS
K.C. INTL      MOCLDY    84  73  69 SW15      29.80R HX  90
K.C. DOWNTOWN  PTCLDY    87  74  64 SW14G23   29.79R HX  95
LEES SUMMIT    PTCLDY    83  73  72 SW15      29.83R
OLATHE - IXD   PTCLDY    83  74  74 S15       29.83R
OLATHE - OJC   PTCLDY    83  74  74 S13G26    29.83R
LAWRENCE       PTCLDY    86  73  65 S14G22    29.80R HX  93

$$

MOZ001>008-011>017-020>025-030>033-038>040-044>046-053-054-260500-
...NORTHERN AND CENTRAL MISSOURI...

CITY           SKY/WX    TMP DP  RH WIND       PRES   REMARKS
ST. JOSEPH     CLEAR     82  73  74 S8        29.77R
MOSBY          PTCLDY    86  72  62 S10G16    29.80R HX  92
WHITEMAN AFB   CLEAR     82  65  55 SW18      29.83R
CLINTON        CLEAR     82  72  69 S7        29.86R
SEDALIA        CLEAR     81  69  67 S7        29.86R
WARSAW         NOT AVBL
MARSHALL       CLEAR     84  73  70 S8        29.84R HX  91
CHILLICOTHE      N/A     84  73  69 S9        29.80R HX  90
KIRKSVILLE     CLEAR     73  69  87 S7        29.84S

$$

MOZ041-047>049-056>058-063>065-088>090-097-260500-
...EASTERN AND SOUTHERN MISSOURI...

CITY           SKY/WX    TMP DP  RH WIND       PRES   REMARKS
ST. LOUIS INTL CLEAR     77  64  64 SE6       29.92S
SPIRIT OF STL  CLEAR     72  65  78 SE3       29.91R
COLUMBIA       CLEAR     78  71  79 S10       29.86S
JEFFERSON CITY CLEAR     81  70  69 SE8       29.85S
HANNIBAL       MOCLDY    75  63  64 SE8       29.85F
ROLLA          CLEAR     76  67  73 S16       29.89R
LEBANON        CLEAR     77  70  78 S9        29.93R
OSAGE BEACH    CLEAR     79  70  73 S9        29.88R
SPRINGFIELD    CLEAR     77  70  79 S9        29.92R
BRANSON        CLEAR     75  72  88 S5        29.96S
JOPLIN         CLEAR     80  71  74 S14       29.91R
WEST PLAINS    CLEAR     74  68  81 S6        29.98R
MALDEN         PTCLDY    73  66  78 SW6       29.97R

$$

IAZ060-094-KSZ022-034>040-054-083-096-NEZ052-066-093-260500-
...KANSAS...SOUTHEAST NEBRASKA AND IOWA...

CITY           SKY/WX    TMP DP  RH WIND       PRES   REMARKS
TOPEKA         CLEAR     88  73  61 S14G23    29.79R HX  95
MANHATTAN      CLEAR     89  68  49 S9        29.78R HX  93
EMPORIA        CLEAR     83  73  72 S18G25    29.83R
CHANUTE        CLEAR     82  73  74 S17G24    29.87R
WICHITA        PTCLDY    86  69  56 S16       29.84R HX  90
OMAHA          MOCLDY    80  74  81 E6        29.78R
LINCOLN        PTCLDY    80  75  84 CALM      29.79R
FALLS CITY     CLEAR     85  72  65 W7        29.76R HX  91
LAMONI         PTCLDY    75  71  87 SE5       29.78R
DES MOINES     PTCLDY    76  70  82 E8        29.79R

$$



USA.gov is the U.S. government's official web portal to all federal, state and local government web resources and services.